| time (UTC) | temp C | wind direction | speed KPH | gust KPH | rain 1hr cm | rain 24hr cm | rain mn cm | humidity % | barometer mb |
| 20260508034533 | 17 | 359 | 29.0 | 41.8 | 0.00 | 0.00 | 0.00 | 86 | 1005.5 |
| 20260508034034 | 17 | 359 | 27.4 | 41.8 | 0.00 | 0.00 | 0.00 | 86 | 1005.7 |
| 20260508033531 | 18 | 359 | 29.0 | 38.6 | 0.00 | 0.00 | 0.00 | 85 | 1005.7 |
| 20260508033033 | 18 | 359 | 29.0 | 41.8 | 0.00 | 0.00 | 0.00 | 86 | 1005.8 |
| 20260508032531 | 18 | 359 | 29.0 | 41.8 | 0.00 | 0.00 | 0.00 | 86 | 1005.8 |
| 20260508032031 | 17 | 359 | 25.7 | 38.6 | 0.00 | 0.00 | 0.00 | 87 | 1006.1 |
| 20260508031531 | 17 | 359 | 25.7 | 38.6 | 0.00 | 0.00 | 0.00 | 87 | 1006.0 |
| 20260508031031 | 17 | 359 | 27.4 | 41.8 | 0.00 | 0.00 | 0.00 | 87 | 1006.1 |
| 20260508030531 | 17 | 359 | 27.4 | 41.8 | 0.00 | 0.00 | 0.00 | 87 | 1006.0 |
| 20260508030032 | 17 | 359 | 27.4 | 38.6 | 0.00 | 0.00 | 0.00 | 87 | 1006.0 |
| 20260508025529 | 17 | 359 | 29.0 | 38.6 | 0.00 | 0.00 | 0.00 | 88 | 1006.0 |
| 20260508024538 | 17 | 359 | 27.4 | 38.6 | 0.00 | 0.00 | 0.00 | 88 | 1006.0 |
| 20260508024036 | 17 | 359 | 25.7 | 38.6 | 0.00 | 0.00 | 0.00 | 88 | 1006.1 |
| 20260508023535 | 17 | 359 | 27.4 | 43.5 | 0.00 | 0.00 | 0.00 | 88 | 1006.1 |
| 20260508023035 | 17 | 359 | 27.4 | 43.5 | 0.00 | 0.00 | 0.00 | 88 | 1006.1 |
| 20260508022535 | 17 | 359 | 27.4 | 37.0 | 0.00 | 0.00 | 0.00 | 87 | 1006.2 |
| 20260508022034 | 17 | 359 | 25.7 | 38.6 | 0.00 | 0.00 | 0.00 | 87 | 1006.2 |
| 20260508021534 | 17 | 359 | 27.4 | 38.6 | 0.00 | 0.00 | 0.00 | 87 | 1006.3 |
| 20260508021035 | 17 | 359 | 29.0 | 37.0 | 0.00 | 0.00 | 0.00 | 88 | 1006.4 |
| 20260508020533 | 17 | 359 | 24.1 | 37.0 | 0.00 | 0.00 | 0.00 | 88 | 1006.4 |
| 20260508020034 | 17 | 359 | 25.7 | 37.0 | 0.00 | 0.00 | 0.00 | 88 | 1006.2 |
| 20260508015532 | 17 | 359 | 25.7 | 37.0 | 0.00 | 0.00 | 0.00 | 88 | 1006.3 |
| 20260508014521 | 17 | 359 | 22.5 | 33.8 | 0.00 | 0.00 | 0.00 | 87 | 1006.5 |
| 20260508014023 | 17 | 359 | 22.5 | 32.2 | 0.00 | 0.00 | 0.00 | 87 | 1006.5 |
| 20260508013523 | 17 | 359 | 22.5 | 32.2 | 0.00 | 0.00 | 0.00 | 87 | 1006.5 |
| 20260508013020 | 17 | 359 | 20.9 | 35.4 | 0.00 | 0.00 | 0.00 | 87 | 1006.4 |
| 20260508012522 | 18 | 359 | 22.5 | 35.4 | 0.00 | 0.00 | 0.00 | 87 | 1006.3 |
| 20260508012019 | 18 | 359 | 22.5 | 37.0 | 0.00 | 0.00 | 0.00 | 87 | 1006.3 |
| 20260508011520 | 18 | 359 | 22.5 | 37.0 | 0.00 | 0.00 | 0.00 | 86 | 1006.3 |
| 20260508011018 | 18 | 359 | 24.1 | 35.4 | 0.00 | 0.00 | 0.00 | 86 | 1006.2 |
| 20260508010517 | 18 | 359 | 22.5 | 33.8 | 0.00 | 0.00 | 0.00 | 86 | 1006.3 |
| 20260508010025 | 18 | 359 | 24.1 | 35.4 | 0.00 | 0.00 | 0.00 | 86 | 1006.3 |
| 20260508005515 | 18 | 359 | 22.5 | 35.4 | 0.00 | 0.00 | 0.00 | 85 | 1006.2 |
| 20260508004530 | 18 | 359 | 22.5 | 33.8 | 0.00 | 0.00 | 0.00 | 85 | 1006.8 |
| 20260508004018 | 18 | 359 | 22.5 | 30.6 | 0.00 | 0.00 | 0.00 | 85 | 1006.8 |
| 20260508003517 | 18 | 359 | 20.9 | 29.0 | 0.00 | 0.00 | 0.00 | 85 | 1006.7 |
| 20260508003016 | 18 | 359 | 19.3 | 29.0 | 0.00 | 0.00 | 0.00 | 84 | 1006.8 |
| 20260508002516 | 18 | 359 | 20.9 | 32.2 | 0.00 | 0.00 | 0.00 | 83 | 1006.8 |
| 20260508002016 | 18 | 359 | 19.3 | 30.6 | 0.00 | 0.00 | 0.00 | 84 | 1006.7 |
| 20260508001515 | 18 | 359 | 17.7 | 25.7 | 0.00 | 0.00 | 0.00 | 84 | 1006.9 |
| 20260508001017 | 19 | 359 | 16.1 | 29.0 | 0.00 | 0.00 | 0.00 | 83 | 1006.8 |
| 20260508000524 | 19 | 359 | 17.7 | 29.0 | 0.00 | 0.00 | 0.00 | 83 | 1006.8 |
| 20260508000018 | 19 | 359 | 19.3 | 29.0 | 0.00 | 0.00 | 0.00 | 83 | 1006.8 |
| 20260507235516 | 19 | 359 | 20.9 | 30.6 | 0.00 | 0.00 | 0.00 | 82 | 1006.6 |
| 20260507234522 | 19 | 359 | 20.9 | 33.8 | 0.00 | 0.00 | 0.00 | 82 | 1006.5 |
| 20260507234014 | 19 | 359 | 19.3 | 33.8 | 0.00 | 0.00 | 0.00 | 82 | 1006.6 |
| 20260507233514 | 19 | 359 | 19.3 | 33.8 | 0.00 | 0.00 | 0.00 | 81 | 1006.5 |
| 20260507233023 | 19 | 359 | 20.9 | 33.8 | 0.00 | 0.00 | 0.00 | 81 | 1006.5 |
| 20260507232517 | 19 | 359 | 20.9 | 33.8 | 0.00 | 0.00 | 0.00 | 81 | 1006.5 |
| 20260507232013 | 19 | 359 | 19.3 | 32.2 | 0.00 | 0.00 | 0.00 | 81 | 1006.5 |
| 20260507231513 | 19 | 359 | 19.3 | 32.2 | 0.00 | 0.00 | 0.00 | 82 | 1006.5 |
| 20260507231013 | 19 | 359 | 20.9 | 30.6 | 0.00 | 0.00 | 0.00 | 82 | 1006.5 |
| 20260507230516 | 19 | 359 | 19.3 | 30.6 | 0.00 | 0.00 | 0.00 | 82 | 1006.5 |
| 20260507230013 | 20 | 359 | 20.9 | 30.6 | 0.00 | 0.00 | 0.00 | 82 | 1006.5 |
| 20260507225513 | 20 | 359 | 20.9 | 32.2 | 0.00 | 0.00 | 0.00 | 82 | 1006.5 |
| 20260507224519 | 20 | 359 | 20.9 | 33.8 | 0.00 | 0.00 | 0.00 | 81 | 1006.5 |
| 20260507224012 | 20 | 359 | 20.9 | 30.6 | 0.00 | 0.00 | 0.00 | 81 | 1006.4 |
| 20260507223516 | 20 | 359 | 17.7 | 32.2 | 0.00 | 0.00 | 0.00 | 82 | 1006.4 |
| 20260507223015 | 20 | 359 | 20.9 | 32.2 | 0.00 | 0.00 | 0.00 | 81 | 1006.3 |
| 20260507222523 | 20 | 359 | 19.3 | 32.2 | 0.00 | 0.00 | 0.00 | 81 | 1006.2 |
| 20260507222014 | 20 | 359 | 22.5 | 32.2 | 0.00 | 0.00 | 0.00 | 81 | 1006.2 |
| 20260507221515 | 20 | 359 | 20.9 | 32.2 | 0.00 | 0.00 | 0.00 | 81 | 1006.1 |
| 20260507221016 | 20 | 359 | 22.5 | 32.2 | 0.00 | 0.00 | 0.00 | 81 | 1006.0 |
| 20260507220520 | 20 | 359 | 20.9 | 29.0 | 0.00 | 0.00 | 0.00 | 81 | 1006.1 |
| 20260507220012 | 20 | 359 | 20.9 | 29.0 | 0.00 | 0.00 | 0.00 | 81 | 1006.1 |
| 20260507215516 | 20 | 359 | 19.3 | 29.0 | 0.00 | 0.00 | 0.00 | 80 | 1006.0 |
| 20260507214519 | 20 | 359 | 20.9 | 30.6 | 0.00 | 0.00 | 0.00 | 79 | 1005.8 |
| 20260507214012 | 20 | 359 | 20.9 | 32.2 | 0.00 | 0.00 | 0.00 | 79 | 1005.7 |
| 20260507213511 | 20 | 359 | 22.5 | 30.6 | 0.00 | 0.00 | 0.00 | 79 | 1005.7 |
| 20260507213011 | 20 | 359 | 19.3 | 30.6 | 0.00 | 0.00 | 0.00 | 78 | 1005.7 |
| 20260507212513 | 20 | 359 | 20.9 | 33.8 | 0.00 | 0.00 | 0.00 | 77 | 1005.5 |
| 20260507212013 | 20 | 359 | 20.9 | 33.8 | 0.00 | 0.00 | 0.00 | 77 | 1005.5 |
| 20260507211511 | 20 | 359 | 22.5 | 32.2 | 0.00 | 0.00 | 0.00 | 76 | 1005.5 |
| 20260507211011 | 20 | 359 | 24.1 | 33.8 | 0.00 | 0.00 | 0.00 | 76 | 1005.4 |
| 20260507210510 | 20 | 359 | 24.1 | 33.8 | 0.00 | 0.00 | 0.00 | 76 | 1005.4 |
| 20260507210010 | 20 | 359 | 20.9 | 32.2 | 0.00 | 0.00 | 0.00 | 75 | 1005.4 |
| 20260507205511 | 20 | 359 | 22.5 | 33.8 | 0.00 | 0.00 | 0.00 | 75 | 1005.3 |
| 20260507204512 | 21 | 359 | 25.7 | 35.4 | 0.00 | 0.00 | 0.00 | 74 | 1005.4 |
| 20260507204012 | 21 | 359 | 25.7 | 37.0 | 0.00 | 0.00 | 0.00 | 73 | 1005.2 |
| 20260507203512 | 21 | 359 | 24.1 | 37.0 | 0.00 | 0.00 | 0.00 | 73 | 1005.3 |
| 20260507203013 | 21 | 359 | 25.7 | 33.8 | 0.00 | 0.00 | 0.00 | 72 | 1005.4 |
| 20260507202512 | 21 | 359 | 24.1 | 37.0 | 0.00 | 0.00 | 0.00 | 71 | 1005.4 |
| 20260507202020 | 21 | 359 | 25.7 | 37.0 | 0.00 | 0.00 | 0.00 | 71 | 1005.3 |
| 20260507201515 | 21 | 359 | 22.5 | 32.2 | 0.00 | 0.00 | 0.00 | 70 | 1005.3 |
| 20260507201012 | 21 | 359 | 22.5 | 37.0 | 0.00 | 0.00 | 0.00 | 70 | 1005.3 |
| 20260507200512 | 21 | 359 | 22.5 | 38.6 | 0.00 | 0.00 | 0.00 | 69 | 1005.2 |
| 20260507200011 | 22 | 359 | 20.9 | 37.0 | 0.00 | 0.00 | 0.00 | 69 | 1005.3 |
| 20260507195512 | 22 | 359 | 24.1 | 35.4 | 0.00 | 0.00 | 0.00 | 68 | 1005.1 |
| 20260507194509 | 22 | 359 | 20.9 | 40.2 | 0.00 | 0.00 | 0.00 | 67 | 1005.2 |
| 20260507194009 | 22 | 359 | 25.7 | 40.2 | 0.00 | 0.00 | 0.00 | 66 | 1005.2 |
| 20260507193508 | 22 | 359 | 29.0 | 40.2 | 0.00 | 0.00 | 0.00 | 66 | 1005.1 |
| 20260507193016 | 22 | 359 | 22.5 | 38.6 | 0.00 | 0.00 | 0.00 | 66 | 1005.3 |
| 20260507192509 | 22 | 359 | 25.7 | 41.8 | 0.00 | 0.00 | 0.00 | 66 | 1005.4 |
| 20260507192008 | 22 | 359 | 29.0 | 41.8 | 0.00 | 0.00 | 0.00 | 65 | 1005.5 |
| 20260507191510 | 22 | 359 | 25.7 | 41.8 | 0.00 | 0.00 | 0.00 | 64 | 1005.3 |
| 20260507191008 | 22 | 359 | 27.4 | 41.8 | 0.00 | 0.00 | 0.00 | 64 | 1005.3 |
| 20260507190509 | 22 | 359 | 25.7 | 43.5 | 0.00 | 0.00 | 0.00 | 64 | 1005.4 |
| 20260507190008 | 22 | 359 | 29.0 | 45.1 | 0.00 | 0.00 | 0.00 | 63 | 1005.3 |
| 20260507185506 | 22 | 4 | 27.4 | 45.1 | 0.00 | 0.00 | 0.00 | 63 | 1005.5 |
| 20260507184506 | 23 | 359 | 29.0 | 45.1 | 0.00 | 0.00 | 0.00 | 62 | 1005.5 |
| 20260507184007 | 23 | 359 | 24.1 | 37.0 | 0.00 | 0.00 | 0.00 | 63 | 1005.5 |
| 20260507183507 | 23 | 359 | 20.9 | 37.0 | 0.00 | 0.00 | 0.00 | 62 | 1005.7 |
| 20260507183008 | 23 | 359 | 24.1 | 38.6 | 0.00 | 0.00 | 0.00 | 61 | 1005.7 |
| 20260507182506 | 23 | 359 | 24.1 | 46.7 | 0.00 | 0.00 | 0.00 | 59 | 1005.8 |
| 20260507182004 | 23 | 359 | 29.0 | 46.7 | 0.00 | 0.00 | 0.00 | 60 | 1005.7 |
| 20260507181505 | 23 | 359 | 25.7 | 43.5 | 0.00 | 0.00 | 0.00 | 61 | 1005.9 |
| 20260507181004 | 23 | 359 | 25.7 | 40.2 | 0.00 | 0.00 | 0.00 | 59 | 1005.8 |
| 20260507180504 | 23 | 359 | 25.7 | 45.1 | 0.00 | 0.00 | 0.00 | 59 | 1006.0 |
| 20260507180004 | 23 | 359 | 32.2 | 45.1 | 0.00 | 0.00 | 0.00 | 58 | 1006.0 |
| 20260507175506 | 23 | 359 | 25.7 | 41.8 | 0.00 | 0.00 | 0.00 | 59 | 1005.9 |
| 20260507174508 | 23 | 359 | 25.7 | 38.6 | 0.00 | 0.00 | 0.00 | 60 | 1006.1 |
| 20260507174002 | 23 | 359 | 24.1 | 38.6 | 0.00 | 0.00 | 0.00 | 60 | 1006.0 |
| 20260507173504 | 23 | 359 | 25.7 | 43.5 | 0.00 | 0.00 | 0.00 | 59 | 1006.1 |
| 20260507173002 | 23 | 359 | 33.8 | 51.5 | 0.00 | 0.00 | 0.00 | 58 | 1006.0 |
| 20260507172502 | 22 | 359 | 25.7 | 51.5 | 0.00 | 0.00 | 0.00 | 60 | 1006.2 |
| 20260507172001 | 23 | 359 | 29.0 | 45.1 | 0.00 | 0.00 | 0.00 | 59 | 1006.3 |
| 20260507171501 | 23 | 359 | 27.4 | 46.7 | 0.00 | 0.00 | 0.00 | 58 | 1006.2 |
| 20260507171001 | 23 | 359 | 29.0 | 46.7 | 0.00 | 0.00 | 0.00 | 57 | 1006.3 |
| 20260507170601 | 23 | 359 | 35.4 | 46.7 | 0.00 | 0.00 | 0.00 | 55 | 1006.2 |
| 20260507165604 | 23 | 359 | 29.0 | 53.1 | 0.00 | 0.00 | 0.00 | 58 | 1006.5 |
| 20260507164601 | 23 | 359 | 30.6 | 45.1 | 0.00 | 0.00 | 0.00 | 58 | 1006.6 |
| 20260507164059 | 23 | 359 | 27.4 | 41.8 | 0.00 | 0.00 | 0.00 | 57 | 1006.7 |
| 20260507163559 | 23 | 359 | 29.0 | 41.8 | 0.00 | 0.00 | 0.00 | 58 | 1006.5 |
| 20260507163059 | 23 | 359 | 25.7 | 41.8 | 0.00 | 0.00 | 0.00 | 59 | 1006.8 |
| 20260507162558 | 23 | 359 | 25.7 | 41.8 | 0.00 | 0.00 | 0.00 | 58 | 1006.8 |
| 20260507162059 | 23 | 359 | 30.6 | 41.8 | 0.00 | 0.00 | 0.00 | 60 | 1006.9 |
| 20260507161558 | 23 | 359 | 29.0 | 45.1 | 0.00 | 0.00 | 0.00 | 60 | 1007.0 |
| 20260507161059 | 23 | 359 | 32.2 | 45.1 | 0.00 | 0.00 | 0.00 | 60 | 1006.9 |
| 20260507160554 | 22 | 359 | 30.6 | 43.5 | 0.00 | 0.00 | 0.00 | 63 | 1007.1 |
| 20260507160114 | 22 | 359 | 27.4 | 41.8 | 0.00 | 0.00 | 0.00 | 62 | 1007.3 |
| 20260507155556 | 22 | 359 | 29.0 | 41.8 | 0.00 | 0.00 | 0.00 | 63 | 1007.5 |
| 20260507154552 | 23 | 359 | 27.4 | 43.5 | 0.00 | 0.00 | 0.00 | 63 | 1007.6 |
| 20260507154050 | 23 | 359 | 29.0 | 40.2 | 0.00 | 0.00 | 0.00 | 64 | 1007.8 |
| 20260507153555 | 23 | 359 | 19.3 | 37.0 | 0.00 | 0.00 | 0.00 | 67 | 1007.9 |
| 20260507153048 | 23 | 359 | 16.1 | 37.0 | 0.00 | 0.00 | 0.00 | 67 | 1008.1 |
| 20260507152557 | 22 | 359 | 24.1 | 38.6 | 0.00 | 0.00 | 0.00 | 66 | 1008.3 |
| 20260507152048 | 23 | 359 | 20.9 | 38.6 | 0.00 | 0.00 | 0.00 | 66 | 1008.4 |
| 20260507151545 | 22 | 359 | 20.9 | 46.7 | 0.00 | 0.00 | 0.00 | 66 | 1008.5 |
| 20260507151045 | 22 | 359 | 27.4 | 46.7 | 0.00 | 0.00 | 0.00 | 65 | 1008.7 |
| 20260507150543 | 22 | 359 | 25.7 | 41.8 | 0.00 | 0.00 | 0.00 | 65 | 1008.9 |
| 20260507150043 | 22 | 359 | 22.5 | 38.6 | 0.00 | 0.00 | 0.00 | 69 | 1009.1 |
| 20260507145544 | 22 | 359 | 25.7 | 38.6 | 0.00 | 0.00 | 0.00 | 69 | 1009.2 |
| 20260507144540 | 22 | 359 | 19.3 | 33.8 | 0.00 | 0.00 | 0.00 | 71 | 1009.4 |
| 20260507144039 | 22 | 359 | 19.3 | 40.2 | 0.00 | 0.00 | 0.00 | 71 | 1009.4 |
| 20260507143537 | 22 | 359 | 20.9 | 40.2 | 0.00 | 0.00 | 0.00 | 72 | 1009.4 |
| 20260507143037 | 22 | 359 | 24.1 | 35.4 | 0.00 | 0.00 | 0.00 | 72 | 1009.5 |
| 20260507142535 | 22 | 359 | 20.9 | 32.2 | 0.00 | 0.00 | 0.00 | 75 | 1009.7 |
| 20260507142034 | 22 | 359 | 22.5 | 30.6 | 0.00 | 0.00 | 0.00 | 75 | 1009.7 |
| 20260507141534 | 22 | 359 | 16.1 | 33.8 | 0.00 | 0.00 | 0.00 | 77 | 1009.8 |
| 20260507141031 | 21 | 359 | 19.3 | 37.0 | 0.00 | 0.00 | 0.00 | 77 | 1009.9 |
| 20260507140530 | 21 | 359 | 20.9 | 37.0 | 0.00 | 0.00 | 0.00 | 76 | 1010.0 |
| 20260507140037 | 21 | 354 | 17.7 | 32.2 | 0.00 | 0.00 | 0.00 | 76 | 1010.1 |
| 20260507135527 | 21 | 16 | 17.7 | 32.2 | 0.00 | 0.00 | 0.00 | 77 | 1010.2 |
| 20260507134529 | 21 | 359 | 16.1 | 27.4 | 0.00 | 0.00 | 0.00 | 78 | 1010.5 |
| 20260507134027 | 21 | 15 | 16.1 | 27.4 | 0.00 | 0.00 | 0.00 | 78 | 1010.5 |
| 20260507133525 | 20 | 359 | 14.5 | 32.2 | 0.00 | 0.00 | 0.00 | 79 | 1010.6 |
| 20260507133024 | 20 | 359 | 12.9 | 22.5 | 0.00 | 0.00 | 0.00 | 81 | 1010.5 |
| 20260507132522 | 20 | 359 | 11.3 | 27.4 | 0.00 | 0.00 | 0.00 | 81 | 1010.6 |
| 20260507132026 | 20 | 359 | 16.1 | 27.4 | 0.00 | 0.00 | 0.00 | 80 | 1010.8 |
| 20260507131538 | 20 | 359 | 14.5 | 27.4 | 0.00 | 0.00 | 0.00 | 79 | 1010.7 |
| 20260507131021 | 20 | 359 | 17.7 | 27.4 | 0.00 | 0.00 | 0.00 | 78 | 1010.8 |
| 20260507130520 | 20 | 359 | 14.5 | 24.1 | 0.00 | 0.00 | 0.00 | 79 | 1010.8 |
| 20260507130020 | 20 | 359 | 12.9 | 24.1 | 0.00 | 0.00 | 0.00 | 80 | 1010.9 |
| 20260507125519 | 20 | 359 | 11.3 | 24.1 | 0.00 | 0.00 | 0.00 | 79 | 1010.9 |
| 20260507124519 | 20 | 10 | 14.5 | 25.7 | 0.00 | 0.00 | 0.00 | 78 | 1010.9 |
| 20260507124013 | 20 | 359 | 16.1 | 25.7 | 0.00 | 0.00 | 0.00 | 79 | 1010.9 |
| 20260507123512 | 20 | 359 | 12.9 | 22.5 | 0.00 | 0.00 | 0.00 | 79 | 1011.0 |
| 20260507123013 | 20 | 359 | 11.3 | 19.3 | 0.00 | 0.00 | 0.00 | 79 | 1011.0 |
| 20260507122517 | 19 | 359 | 12.9 | 27.4 | 0.00 | 0.00 | 0.00 | 81 | 1011.1 |
| 20260507122008 | 19 | 359 | 11.3 | 19.3 | 0.00 | 0.00 | 0.00 | 81 | 1011.2 |
| 20260507121508 | 19 | 8 | 12.9 | 19.3 | 0.00 | 0.00 | 0.00 | 81 | 1011.1 |
| 20260507121006 | 19 | 359 | 11.3 | 22.5 | 0.00 | 0.00 | 0.00 | 81 | 1011.2 |
| 20260507120504 | 19 | 359 | 14.5 | 22.5 | 0.00 | 0.00 | 0.00 | 81 | 1011.2 |
| 20260507120002 | 18 | 359 | 11.3 | 22.5 | 0.00 | 0.00 | 0.00 | 82 | 1011.3 |
| 20260507115502 | 18 | 359 | 12.9 | 24.1 | 0.00 | 0.00 | 0.00 | 81 | 1011.3 |
| 20260507114501 | 18 | 359 | 11.3 | 24.1 | 0.00 | 0.00 | 0.00 | 79 | 1011.3 |
| 20260507114100 | 18 | 359 | 14.5 | 24.1 | 0.00 | 0.00 | 0.00 | 78 | 1011.3 |
| 20260507113600 | 18 | 359 | 12.9 | 29.0 | 0.00 | 0.00 | 0.00 | 79 | 1011.3 |
| 20260507113131 | 18 | 359 | 14.5 | 29.0 | 0.00 | 0.00 | 0.00 | 79 | 1011.3 |
| 20260507112557 | 18 | 359 | 16.1 | 27.4 | 0.00 | 0.00 | 0.00 | 78 | 1011.3 |
| 20260507112059 | 18 | 354 | 17.7 | 27.4 | 0.00 | 0.00 | 0.00 | 78 | 1011.3 |
| 20260507111556 | 18 | 9 | 12.9 | 25.7 | 0.00 | 0.00 | 0.00 | 78 | 1011.2 |
| 20260507111054 | 18 | 359 | 14.5 | 25.7 | 0.00 | 0.00 | 0.00 | 79 | 1011.3 |
| 20260507110554 | 18 | 359 | 12.9 | 25.7 | 0.00 | 0.00 | 0.00 | 79 | 1011.3 |
| 20260507110053 | 18 | 359 | 16.1 | 24.1 | 0.00 | 0.00 | 0.00 | 79 | 1011.3 |
| 20260507105551 | 18 | 359 | 16.1 | 24.1 | 0.00 | 0.00 | 0.00 | 80 | 1011.4 |
| 20260507105151 | 18 | 359 | 12.9 | 22.5 | 0.00 | 0.00 | 0.00 | 79 | 1011.4 |
| 20260507104601 | 18 | 359 | 14.5 | 22.5 | 0.00 | 0.00 | 0.00 | 79 | 1011.4 |
| 20260507104050 | 18 | 359 | 14.5 | 27.4 | 0.00 | 0.00 | 0.00 | 79 | 1011.4 |
| 20260507103548 | 18 | 359 | 12.9 | 24.1 | 0.00 | 0.00 | 0.00 | 80 | 1011.5 |
| 20260507103048 | 18 | 359 | 14.5 | 27.4 | 0.00 | 0.00 | 0.00 | 79 | 1011.4 |
| 20260507102548 | 18 | 359 | 12.9 | 27.4 | 0.00 | 0.00 | 0.00 | 79 | 1011.3 |
| 20260507102048 | 18 | 359 | 14.5 | 25.7 | 0.00 | 0.00 | 0.00 | 79 | 1011.2 |
| 20260507101553 | 17 | 359 | 14.5 | 24.1 | 0.00 | 0.00 | 0.00 | 80 | 1011.3 |
| 20260507101050 | 17 | 359 | 12.9 | 22.5 | 0.00 | 0.00 | 0.00 | 80 | 1011.3 |
| 20260507100547 | 17 | 359 | 16.1 | 25.7 | 0.00 | 0.00 | 0.00 | 80 | 1011.3 |
| 20260507100055 | 17 | 359 | 16.1 | 25.7 | 0.00 | 0.00 | 0.00 | 81 | 1011.2 |
| 20260507095547 | 17 | 359 | 14.5 | 22.5 | 0.00 | 0.00 | 0.00 | 81 | 1011.1 |
| 20260507095148 | 17 | 359 | 12.9 | 20.9 | 0.00 | 0.00 | 0.00 | 81 | 1011.2 |
| 20260507094548 | 17 | 359 | 14.5 | 20.9 | 0.00 | 0.00 | 0.00 | 80 | 1011.2 |
| 20260507094051 | 17 | 359 | 14.5 | 19.3 | 0.00 | 0.00 | 0.00 | 80 | 1011.1 |
| 20260507093547 | 17 | 4 | 12.9 | 20.9 | 0.00 | 0.00 | 0.00 | 81 | 1011.1 |
| 20260507093047 | 17 | 359 | 12.9 | 25.7 | 0.00 | 0.00 | 0.00 | 81 | 1011.1 |
| 20260507092548 | 17 | 359 | 14.5 | 22.5 | 0.00 | 0.00 | 0.00 | 81 | 1011.1 |
| 20260507092049 | 17 | 359 | 14.5 | 22.5 | 0.00 | 0.00 | 0.00 | 82 | 1010.9 |
| 20260507091549 | 17 | 359 | 14.5 | 25.7 | 0.00 | 0.00 | 0.00 | 82 | 1010.8 |
| 20260507091046 | 17 | 359 | 16.1 | 25.7 | 0.00 | 0.00 | 0.00 | 82 | 1010.7 |
| 20260507090545 | 17 | 359 | 14.5 | 20.9 | 0.00 | 0.00 | 0.00 | 81 | 1010.6 |
| 20260507090046 | 17 | 359 | 12.9 | 22.5 | 0.00 | 0.00 | 0.00 | 81 | 1010.7 |
| 20260507085545 | 17 | 359 | 12.9 | 24.1 | 0.00 | 0.00 | 0.00 | 81 | 1010.8 |
| 20260507085145 | 17 | 359 | 14.5 | 24.1 | 0.00 | 0.00 | 0.00 | 80 | 1010.7 |
| 20260507084554 | 17 | 359 | 12.9 | 24.1 | 0.00 | 0.00 | 0.00 | 81 | 1010.6 |
| 20260507084047 | 17 | 359 | 14.5 | 27.4 | 0.00 | 0.00 | 0.00 | 80 | 1010.6 |
| 20260507083544 | 17 | 359 | 16.1 | 27.4 | 0.00 | 0.00 | 0.00 | 79 | 1010.5 |
| 20260507083044 | 17 | 359 | 14.5 | 25.7 | 0.00 | 0.00 | 0.00 | 79 | 1010.6 |
| 20260507082542 | 17 | 359 | 14.5 | 25.7 | 0.00 | 0.00 | 0.00 | 79 | 1010.6 |
| 20260507082043 | 17 | 359 | 16.1 | 24.1 | 0.00 | 0.00 | 0.00 | 79 | 1010.5 |
| 20260507081543 | 17 | 359 | 17.7 | 24.1 | 0.00 | 0.00 | 0.00 | 80 | 1010.6 |
| 20260507081042 | 17 | 359 | 16.1 | 24.1 | 0.00 | 0.00 | 0.00 | 81 | 1010.6 |
| 20260507080540 | 17 | 359 | 16.1 | 25.7 | 0.00 | 0.00 | 0.00 | 82 | 1010.6 |
| 20260507080040 | 17 | 34 | 12.9 | 27.4 | 0.00 | 0.00 | 0.00 | 81 | 1010.6 |
| 20260507075540 | 17 | 28 | 17.7 | 29.0 | 0.00 | 0.00 | 0.00 | 79 | 1010.7 |
| 20260507075139 | 17 | 359 | 16.1 | 25.7 | 0.00 | 0.00 | 0.00 | 80 | 1010.7 |
| 20260507074541 | 17 | 359 | 14.5 | 24.1 | 0.00 | 0.00 | 0.00 | 79 | 1010.8 |
| 20260507074036 | 18 | 359 | 16.1 | 25.7 | 0.00 | 0.00 | 0.00 | 79 | 1010.9 |
| 20260507073535 | 17 | 14 | 17.7 | 27.4 | 0.00 | 0.00 | 0.00 | 79 | 1010.9 |
| 20260507073035 | 17 | 4 | 19.3 | 27.4 | 0.00 | 0.00 | 0.00 | 82 | 1011.0 |
| 20260507072535 | 17 | 359 | 16.1 | 30.6 | 0.00 | 0.00 | 0.00 | 82 | 1010.9 |
| 20260507072035 | 17 | 359 | 17.7 | 30.6 | 0.00 | 0.00 | 0.00 | 82 | 1010.9 |
| 20260507071537 | 17 | 18 | 16.1 | 27.4 | 0.00 | 0.00 | 0.00 | 82 | 1010.9 |
| 20260507071033 | 17 | 359 | 14.5 | 24.1 | 0.00 | 0.00 | 0.00 | 80 | 1011.0 |
| 20260507070533 | 17 | 359 | 16.1 | 24.1 | 0.00 | 0.00 | 0.00 | 81 | 1011.0 |
| 20260507070033 | 17 | 359 | 14.5 | 25.7 | 0.00 | 0.00 | 0.00 | 81 | 1011.1 |
| 20260507065531 | 17 | 359 | 14.5 | 22.5 | 0.00 | 0.00 | 0.00 | 82 | 1011.1 |
| 20260507065131 | 18 | 359 | 12.9 | 22.5 | 0.00 | 0.00 | 0.00 | 81 | 1011.2 |
| 20260507064543 | 18 | 359 | 12.9 | 22.5 | 0.00 | 0.00 | 0.00 | 81 | 1011.2 |
| 20260507064058 | 18 | 359 | 14.5 | 24.1 | 0.00 | 0.00 | 0.00 | 82 | 1011.2 |
| 20260507063532 | 18 | 359 | 17.7 | 24.1 | 0.00 | 0.00 | 0.00 | 82 | 1011.3 |
| 20260507063031 | 18 | 359 | 16.1 | 24.1 | 0.00 | 0.00 | 0.00 | 81 | 1011.3 |
| 20260507062531 | 18 | 359 | 16.1 | 22.5 | 0.00 | 0.00 | 0.00 | 80 | 1011.5 |
| 20260507062102 | 18 | 359 | 12.9 | 20.9 | 0.00 | 0.00 | 0.00 | 80 | 1011.5 |
| 20260507061535 | 18 | 359 | 14.5 | 25.7 | 0.00 | 0.00 | 0.00 | 80 | 1011.5 |
| 20260507061029 | 18 | 359 | 14.5 | 25.7 | 0.00 | 0.00 | 0.00 | 80 | 1011.5 |
| 20260507060528 | 17 | 359 | 12.9 | 22.5 | 0.00 | 0.00 | 0.00 | 82 | 1011.6 |
| 20260507060036 | 18 | 359 | 14.5 | 22.5 | 0.00 | 0.00 | 0.00 | 83 | 1011.6 |
| 20260507055528 | 18 | 359 | 14.5 | 24.1 | 0.00 | 0.00 | 0.00 | 83 | 1011.6 |
| 20260507055131 | 18 | 359 | 16.1 | 24.1 | 0.00 | 0.00 | 0.00 | 83 | 1011.9 |
| 20260507054535 | 18 | 359 | 14.5 | 20.9 | 0.00 | 0.00 | 0.00 | 85 | 1011.9 |
| 20260507054023 | 18 | 359 | 11.3 | 25.7 | 0.00 | 0.00 | 0.00 | 85 | 1011.9 |
| 20260507053523 | 18 | 359 | 14.5 | 25.7 | 0.00 | 0.00 | 0.00 | 85 | 1012.0 |
| 20260507053021 | 18 | 359 | 12.9 | 22.5 | 0.00 | 0.00 | 0.00 | 85 | 1012.2 |
| 20260507052524 | 18 | 359 | 12.9 | 19.3 | 0.00 | 0.00 | 0.00 | 85 | 1012.3 |
| 20260507052020 | 18 | 359 | 12.9 | 19.3 | 0.00 | 0.00 | 0.00 | 85 | 1012.3 |
| 20260507051520 | 18 | 359 | 11.3 | 22.5 | 0.00 | 0.00 | 0.00 | 85 | 1012.4 |
| 20260507051023 | 18 | 4 | 12.9 | 22.5 | 0.00 | 0.00 | 0.00 | 85 | 1012.4 |
| 20260507050519 | 18 | 359 | 11.3 | 20.9 | 0.00 | 0.00 | 0.00 | 86 | 1012.6 |
| 20260507050039 | 18 | 359 | 14.5 | 20.9 | 0.00 | 0.00 | 0.00 | 85 | 1012.6 |
| 20260507045517 | 18 | 359 | 12.9 | 20.9 | 0.00 | 0.00 | 0.00 | 85 | 1012.7 |
| 20260507045116 | 18 | 359 | 12.9 | 22.5 | 0.00 | 0.00 | 0.00 | 85 | 1012.7 |
| 20260507044522 | 18 | 359 | 14.5 | 22.5 | 0.00 | 0.00 | 0.00 | 85 | 1012.7 |
| 20260507044015 | 18 | 359 | 9.7 | 19.3 | 0.00 | 0.00 | 0.00 | 85 | 1012.7 |
| 20260507043515 | 18 | 359 | 12.9 | 24.1 | 0.00 | 0.00 | 0.00 | 84 | 1012.8 |
| 20260507043015 | 18 | 359 | 12.9 | 24.1 | 0.00 | 0.00 | 0.00 | 85 | 1012.9 |
| 20260507042515 | 18 | 359 | 12.9 | 22.5 | 0.00 | 0.00 | 0.00 | 86 | 1012.9 |
| 20260507042014 | 18 | 359 | 12.9 | 22.5 | 0.00 | 0.00 | 0.00 | 88 | 1012.9 |
| 20260507041513 | 18 | 359 | 14.5 | 22.5 | 0.00 | 0.00 | 0.00 | 89 | 1013.0 |
| 20260507041013 | 18 | 359 | 12.9 | 24.1 | 0.00 | 0.00 | 0.00 | 90 | 1013.0 |
| 20260507040512 | 18 | 359 | 16.1 | 24.1 | 0.00 | 0.00 | 0.00 | 89 | 1013.0 |
| 20260507040014 | 18 | 359 | 12.9 | 19.3 | 0.00 | 0.00 | 0.00 | 89 | 1013.0 |
| 20260507035510 | 18 | 4 | 11.3 | 20.9 | 0.00 | 0.00 | 0.00 | 89 | 1013.1 |
| 20260507035110 | 18 | 359 | 14.5 | 20.9 | 0.00 | 0.00 | 0.00 | 89 | 1013.2 |